Погода в Опытном

Россия / Чувашская Республика     55°50′53″N   47°29′32″E
темп.,
°C
ветер,
м/с
пор.,
м/с
влажн.,
%
обл.,
%
осадки,
мм/ч
давл.,
гПа
погр.,
м
14 апреля, ср
ср1400:00+7ю33735 0.0 103017
03:00+6ю327378 0.0 103014
06:00+3ююв22861 0.0 102928
09:00+11ююв37765 0.0 1028185
12:00+16ююв57484 0.0 1027635
15:00+17ююв57549 0.0 1025899
18:00+14ююв48765 0.0 1024147
21:00+11ююв39874 0.0 1024141
15 апреля, чт
чт1500:00+10ююв33890 0.0 102335
03:00+9ююв22900 0.0 102221
06:00+8ююв23900 0.0 102159
09:00+14ю34744 0.0 1020404
12:00+17юз336191 0.1 10191200
15:00+17зюз3355100 0.3 10191136
18:00+15сз22657 0.0 101819
21:00+12сз117426 0.0 101916
16 апреля, пт
пт1600:00+10ссв599488 0.0 1020334
03:00+8ссв61091100 0.0 1021446
06:00+7св61190100 0.0 1022498
09:00+7св71087100 0.0 1024545
12:00+9всв797793 0.0 1025709
15:00+10всв796738 0.0 1025864
18:00+9всв510657 0.0 1025529
21:00+6св512685 0.0 1026290
17 апреля, сб
сб1700:00+4св512705 0.0 1027271
03:00+2св411750 0.0 1028227
06:00+2св411730 0.0 1029272
09:00+7всв68495 0.0 1029684
12:00+10св67390 0.0 10281234
15:00+12св56360 0.0 10281505
18:00+9св36510 0.0 1028143
21:00+6св34640 0.0 102862
18 апреля, вс
вс1800:00+4ссв33690 0.0 102833
03:00+3ссв35770 0.0 102971
06:00+3ссв37795 0.0 1029161
09:00+8св46555 0.0 1029696
12:00+11ссв564664 0.0 10281558
15:00+12ссв664485 0.0 10281883
18:00+9св7106198 0.0 1029655
21:00+5всв5116994 0.0 1031430